This is the latest recevied weather packets stored in our database for station/object K8RRT. If no packets are shown the sender has not sent any weather packets the latest 10 day(s).
| Time | Temp. | Humidity | Pressure | Rain* | Wind** | Luminosity | Snow |
|---|---|---|---|---|---|---|---|
| 1778026314 | 21.11° C | 54% | 1004.6 hPa | 0 mm | - | 0 W/m² | - |
| 1778026011 | 21.11° C | 51% | 1004.6 hPa | 0 mm | - | 1 W/m² | - |
| 1778025709 | 21.67° C | 53% | 1004.7 hPa | 0 mm | - | 3 W/m² | - |
| 1778025406 | 21.11° C | 53% | 1004.7 hPa | 0 mm | - | 10 W/m² | - |
| 1778025104 | 21.67° C | 53% | 1004.9 hPa | 0 mm | - | 12 W/m² | - |
| 1778024800 | 21.67° C | 50% | 1004.8 hPa | 0 mm | - | 10 W/m² | - |
| 1778024497 | 22.22° C | 50% | 1005 hPa | 0 mm | - | 7 W/m² | - |
| 1778024194 | 22.22° C | 49% | 1004.9 hPa | 0 mm | - | 10 W/m² | - |
| 1778023892 | 22.22° C | 48% | 1004.7 hPa | 0 mm | - | 10 W/m² | - |
| 1778023589 | 22.22° C | 48% | 1005 hPa | 0 mm | - | 12 W/m² | - |
| 1778023286 | 22.22° C | 47% | 1005.1 hPa | 0 mm | - | 12 W/m² | - |
| 1778022983 | 22.22° C | 48% | 1005.1 hPa | 0 mm | - | 14 W/m² | - |
| 1778022682 | 22.78° C | 48% | 1005.5 hPa | 0 mm | - | 18 W/m² | - |
| 1778022380 | 22.78° C | 48% | 1005.3 hPa | 0 mm | - | 17 W/m² | - |
| 1778022076 | 22.78° C | 47% | 1005 hPa | 0 mm | - | 22 W/m² | - |
| 1778021772 | 22.78° C | 47% | 1004.9 hPa | 0 mm | - | 31 W/m² | - |
| 1778021468 | 22.78° C | 47% | 1005.3 hPa | 0 mm | - | 25 W/m² | - |
| 1778021165 | 22.78° C | 48% | 1005.2 hPa | 0 mm | - | 22 W/m² | - |
| 1778020863 | 22.78° C | 47% | 1005.2 hPa | 0 mm | - | 28 W/m² | - |
| 1778020560 | 23.33° C | 47% | 1005.1 hPa | 0 mm | - | 44 W/m² | - |
| 1778020256 | 23.33° C | 48% | 1005.2 hPa | 0 mm | - | 69 W/m² | - |
| 1778019953 | 23.33° C | 46% | 1005.2 hPa | 0 mm | - | 89 W/m² | - |
| 1778019649 | 23.33° C | 47% | 1005.1 hPa | 0 mm | - | 98 W/m² | - |
| 1778019346 | 23.33° C | 49% | 1005.1 hPa | 0 mm | - | 95 W/m² | - |
| 1778019042 | 23.33° C | 47% | 1005.2 hPa | 0 mm | - | 90 W/m² | - |
* Rain latest hour (hover to see other rain measurements)
** Current wind speed in m/s (hover to see current wind gust speed)